Spokane Felts, WA
on Thursday, February 14, 2013

Thursday
Previous Day Next Day
Daily Summary
 ActualAverageRecord
Temperature
Mean Temperature °F 34°F  
Max Temperature 45°F 42°F 49°F (2011)
Min Temperature 24°F 26°F 17°F (2006)
Degree Days
Heating Degree Days 30 31  
Month to date heating degree days 409 443  
Since 1 July heating degree days 3710 4155  
Cooling Degree Days 0 0  
Month to date cooling degree days 0 0  
Year to date cooling degree days 0 0  
Moisture
Dew Point 26°F   
Average Humidity 69    
Maximum Humidity 88    
Minimum Humidity 49    
Precipitation
Precipitation 0.00 in 0.04 in 0.33 in (2000)
Month to date precipitation 0.08 0.80  
Year to date precipitation 1.71 2.75  
Wind
Wind Speed 2 mph   
Max Wind Speed 8 mph   
Max Gust Speed 10 mph   
Visibility 10 miles   
Events     

Key: T is trace of precipitation, MM is missing value
Source: NWS Daily Summary
Time(PST)TemperatureDew PointHumidity Pressure Visibility Wind DirectionWind SpeedGust SpeedPrecipitationEvents Conditions
12:53 AM 26.1°F 21.9°F 84% 30.39 in 10.0 miles ENE 3.5 mph - N/A   Clear
1:53 AM 27.0°F 21.9°F 81% 30.41 in 10.0 miles Calm Calm - N/A   Clear
2:53 AM 27.0°F 23.0°F 85% 30.43 in 9.0 miles Calm Calm - N/A   Clear
3:53 AM 26.1°F 23.0°F 88% 30.43 in 9.0 miles Calm Calm - N/A   Clear
4:53 AM 26.1°F 21.9°F 84% 30.45 in 10.0 miles Calm Calm - N/A   Clear
5:53 AM 25.0°F 21.9°F 88% 30.46 in 9.0 miles Calm Calm - N/A   Clear
6:53 AM 26.1°F 21.9°F 84% 30.48 in 10.0 miles Calm Calm - N/A   Mostly Cloudy
7:53 AM 28.0°F 23.0°F 81% 30.50 in 10.0 miles Calm Calm - N/A   Overcast
8:53 AM 30.9°F 26.1°F 82% 30.51 in 10.0 miles East 3.5 mph - N/A   Overcast
9:53 AM 35.1°F 28.0°F 76% 30.52 in 10.0 miles East 3.5 mph - N/A   Overcast
10:53 AM 39.0°F 28.9°F 67% 30.51 in 10.0 miles Calm Calm - N/A   Clear
11:53 AM 42.1°F 28.9°F 60% 30.51 in 10.0 miles Calm Calm - N/A   Scattered Clouds
12:53 PM 43.0°F 30.0°F 60% 30.50 in 10.0 miles SSW 6.9 mph - N/A   Overcast
1:53 PM 44.1°F 28.9°F 55% 30.49 in 10.0 miles SSW 5.8 mph - N/A   Overcast
2:53 PM 44.1°F 27.0°F 51% 30.50 in 10.0 miles SW 5.8 mph - N/A   Mostly Cloudy
3:53 PM 43.0°F 28.0°F 56% 30.51 in 10.0 miles WNW 3.5 mph - N/A   Mostly Cloudy
4:53 PM 43.0°F 28.0°F 56% 30.51 in 10.0 miles Variable 3.5 mph - N/A   Overcast
5:53 PM 37.0°F 28.0°F 70% 30.52 in 10.0 miles Calm Calm - N/A   Clear
6:53 PM 33.1°F 27.0°F 78% 30.53 in 10.0 miles Calm Calm - N/A   Clear
7:53 PM 32.0°F 26.1°F 79% 30.53 in 10.0 miles Calm Calm - N/A   Clear
8:53 PM 30.9°F 26.1°F 82% 30.55 in 10.0 miles Calm Calm - N/A   Clear
9:53 PM 30.0°F 26.1°F 85% 30.55 in 10.0 miles Calm Calm - N/A   Clear
10:53 PM 30.0°F 25.0°F 82% 30.57 in 10.0 miles Calm Calm - N/A   Clear
11:53 PM 28.9°F 26.1°F 89% 30.58 in 10.0 miles Calm Calm - N/A   Scattered Clouds
Moon Phase
Feb. 14 Feb. 17 Feb. 25 Mar. 04 Mar. 11
Sunrise:06:56 AM (PST) Moon Rise:08:36 AM (PST)2/14
Sunset:05:11 PM (PST) Moon Set:10:46 PM (PST)2/14

Copyright © 2014 The Weather Underground, Inc.